Location: Antoign�
(47.0844°N, 0.1131°W)
Time: 21:30:31
(UTC+00:00)

Cosmos 2322 Rocket - Pass Details

Date: 03 March 2021
Orbit: 832 x 852 km, 71.0° (Epoch: 14 April)

Event Time Altitude Azimuth Distance (km) Brightness Sun altitude
Rises 19:06:14 0° 212° (SSW) 3,364 5.7 -13.9°
Reaches altitude 10° 19:08:40 10° 214° (SW) 2,434 5.0 -14.3°
Maximum altitude 19:14:14 71° 299° (WNW) 883 2.5 -15.3°
Drops below altitude 10° 19:19:52 10° 24° (NNE) 2,456 4.5 -16.2°
Sets 19:22:20 0° 26° (NNE) 3,397 5.2 -16.7°
